Pottstown, PA

2:15 AM EDT on May 21, 2018 (GMT -0400)
Pottstown Limerick

Weather History for KPTW - November, 2012

Change the Weather History Date:

Friday, November 16, 2012

  Actual Average (KRDG) Record (KRDG)
Temperature  
Mean Temperature 40 °F -  
Max Temperature 50 °F 50 °F 72 °F (2005)
Min Temperature 30 °F 32 °F 10 °F (1908)
Degree Days  
Heating Degree Days 25    
Moisture  
Dew Point 27 °F    
Average Humidity 66    
Maximum Humidity 89    
Minimum Humidity 41    
Precipitation  
Precipitation 0.00 in - - ()
Sea Level Pressure  
Sea Level Pressure 30.36 in    
Wind  
Wind Speed 2 mph (North)    
Max Wind Speed 10 mph    
Max Gust Speed -    
Visibility 10 miles    
Events      
Averages and records for this station are not official NWS values.
T = Trace of Precipitation, MM = Missing Value Source: NWS Daily Summary

Daily Weather History Graph

Daily Weather History Graph

Search for Another Location

Airport or City:

Astronomy

Nov. 16, 2012 Rise Set
Actual Time 6:49 AM EST 4:44 PM EST
Civil Twilight 6:20 AM EST 5:13 PM EST
Nautical Twilight 5:47 AM EST 5:46 PM EST
Astronomical Twilight 5:15 AM EST 6:18 PM EST
Moon 9:42 AM EST (11/16) 7:41 PM EST (11/16)
Length of Visible Light 10h 53m
Length of Day
9h 54m
Waxing Crescent, 11% of the Moon is Illuminated
Nov 16
Waxing Crescent
Nov 20
First Quarter
Nov 28
Full
Dec 6
Last Quarter
Dec 13
New

Hourly Weather History & Observations

Time (EST) Temp. Windchill Dew Point Humidity Pressure Visibility Wind Dir Wind Speed Gust Speed Precip Events Conditions
12:54 AM 33.1 °F - 28.9 °F 85% 30.32 in 10.0 mi Calm Calm - N/A   Clear
1:54 AM 33.1 °F - 28.9 °F 85% 30.32 in 10.0 mi Calm Calm - N/A   Clear
2:54 AM 32.0 °F - 28.0 °F 85% 30.32 in 10.0 mi Calm Calm - N/A   Clear
3:54 AM 30.9 °F - 28.0 °F 89% 30.32 in 10.0 mi Calm Calm - N/A   Clear
4:54 AM 32.0 °F - 28.0 °F 85% 30.32 in 10.0 mi Calm Calm - N/A   Clear
5:54 AM 33.1 °F - 28.9 °F 85% 30.32 in 10.0 mi Calm Calm - N/A   Clear
6:54 AM 35.1 °F - 28.0 °F 76% 30.33 in 10.0 mi Calm Calm - N/A   Clear
7:54 AM 35.1 °F - 30.0 °F 82% 30.35 in 10.0 mi Calm Calm - N/A   Clear
8:54 AM 37.0 °F - 30.0 °F 76% 30.36 in 10.0 mi Calm Calm - N/A   Clear
9:54 AM 42.1 °F - 30.0 °F 62% 30.37 in 10.0 mi Calm Calm - N/A   Clear
10:54 AM 43.0 °F 39.5 °F 28.9 °F 58% 30.36 in 10.0 mi NE 5.8 mph - N/A   Clear
11:54 AM 46.0 °F 41.0 °F 28.9 °F 51% 30.35 in 10.0 mi North 10.4 mph - N/A   Clear
12:54 PM 48.0 °F - 28.0 °F 46% 30.33 in 10.0 mi NE 5.8 mph - N/A   Clear
1:54 PM 48.0 °F - 27.0 °F 44% 30.32 in 10.0 mi North 5.8 mph - N/A   Clear
2:54 PM 50.0 °F - 27.0 °F 41% 30.33 in 10.0 mi Variable 6.9 mph - N/A   Clear
3:54 PM 48.9 °F - 28.9 °F 46% 30.34 in 10.0 mi Calm Calm - N/A   Clear
4:54 PM 46.0 °F 44.8 °F 27.0 °F 47% 30.36 in 10.0 mi NNW 3.5 mph - N/A   Clear
5:54 PM 44.1 °F 41.5 °F 25.0 °F 47% 30.38 in 10.0 mi NNW 4.6 mph - N/A   Clear
6:54 PM 43.0 °F 38.8 °F 25.0 °F 49% 30.39 in 10.0 mi NNW 6.9 mph - N/A   Clear
7:54 PM 41.0 °F 37.1 °F 25.0 °F 53% 30.41 in 10.0 mi North 5.8 mph - N/A   Clear
8:54 PM 36.0 °F - 26.1 °F 67% 30.43 in 10.0 mi Calm Calm - N/A   Clear
9:54 PM 34.0 °F - 25.0 °F 70% 30.45 in 10.0 mi Calm Calm - N/A   Clear
10:54 PM 33.1 °F - 25.0 °F 72% 30.45 in 10.0 mi Calm Calm - N/A   Clear
11:54 PM 30.9 °F - 24.1 °F 76% 30.45 in 10.0 mi Calm Calm - N/A   Clear